www.pogodaiklimat.ru

Погода и климат >> Архив погоды >> Россия >> Хакасия >> Неожиданный


АРХИВ ПОГОДЫ в Неожиданном

Время (UTC), дата Ветер
(напр.,м/с)
 
Видим.   Явления Облачность Т
(С)
Тd
(С)
f
(%)
Тe
(С)
Тes
(С)
Комфортность P
(гПа)
Po
(гПа)
Тmin
(С)
Tmax
(С)
R
(мм)
R24
(мм)
S
(см)
18 14.05 штиль 0 н/о 10/0
[Ac trans Cs]
-1.8 -3.7 87 -3 -3 1013.8 949.3
21 14.05 штиль 0 н/о 10/0
[Ac As]
-2.2 -4.1 87 -3 -3 1011.1 946.7
00 15.05 штиль 0 50 км 10/0
[Ac trans Cs]
-1.5 -3.7 85 -3 -1 1007.6 943.8 -2.6 0
03 15.05 штиль 0 50 км 10/10 1020 м
[Cb cap]
+2.2 -3.5 66 +2 +2 1008.6 945.3
06 15.05 В 2 50 км в посл. час крупа 10/10 1000 м
[Cb cap]
+1.8 -2.6 73 -1 -1 1009.5 946.0
09 15.05 З 1 50 км в посл. час ливневой снег 10/10 1000 м
[Cb cap]
+1.8 -1.3 80 0 0 1012.9 949.3
12 15.05 штиль 0 4000 м слаб. ливневой снег 10/10 1000 м
[Cb cap]
+1.2 -0.8 87 0 0 1014.9 951.1 +5.2 6
15 15.05 штиль 0 н/о 10/8 1020 м
[Sc Ci sp]
0.0 -1.7 88 -1 -1 1019.1 954.7
18 15.05 штиль 0 н/о 10 баллов -0.5 -1.9 90 -2 -2 1020.6 956.0
21 15.05 штиль 0 н/о 10/0
[Ci sp]
-0.7 -2.1 90 -2 -2 1020.7 956.0
00 16.05 З 1 50 км 10/10 1000 м
[Cb cap]
-0.1 -1.6 90 -2 -2 1021.1 956.5 -1.5 1
03 16.05 Ю 2 10 км слаб. ливневой снег 10/10 960 м
[Cb cap]
+2.1 -2.9 69 -1 -1 1021.4 957.2
06 16.05 ЮЗ 2 50 км {ливн. осадки} 9/9 1020 м
[Cb cap]
+5.2 -2.4 58 +3 +5 1020.6 957.3
09 16.05 Ю 3 50 км 9/9 1020 м
[Cb cap]
+5.6 -4.3 49 +3 +4 1020.6 957.3
12 16.05 ЮЗ 2 50 км {ливн. осадки} 10/8 1020 м
[Cb cap Ci sp]
+2.8 -0.5 79 -0 0 1021.6 957.8 +6.9 2
15 16.05 ЮЗ 1 н/о 6/4 1000 м
[Sc Ci fib]
-0.7 -2.4 88 -3 -3 1024.9 960.0
18 16.05 ЮВ 1 н/о туман н/о -2.1 -3.4 91 -4 1025.3 960.0
21 16.05 Ю 1 н/о туман ?/? -1.8 -3.7 87 -4 -4 1025.2 960.0
00 17.05 штиль 0 500 м туман ?/? -0.6 -2.7 86 -2 -2 1023.8 959.0 -2.2
03 17.05 З 1 50 км в посл. час туман 9/9 1020 м
[Sc]
+2.0 -2.0 75 +1 +2 1024.0 959.6
06 17.05 Ю 2 50 км {туман} 8/6 1020 м
[Cb cap Ci sp]
+5.7 -4.5 48 +4 +9 1022.2 958.8
09 17.05 З 2 50 км 6/3 1000 м
[Cb cap Ci sp]
+9.1 -3.8 40 +8 +12 1022.6 960.0
12 17.05 В 1 50 км 6/6 1020 м
[Cb cap]
+7.0 -3.3 48 +7 +8 1022.2 959.3 +9.3
15 17.05 ЮЗ 1 н/о 8/8 1020 м
[Sc]
+1.0 -2.9 75 -1 -1 1025.9 961.3
18 17.05 штиль 0 н/о 6/6 1020 м
[Sc]
-2.3 -4.2 87 -3 -3 1028.2 962.7
21 17.05 штиль 0 н/о ясно -3.9 -5.4 89 -5 -5 1028.6 962.7
00 18.05 штиль 0 50 км в посл. час туман 10/0
[Cs]
-2.6 -4.2 89 -4 -2 1026.7 961.3 -4.5
03 18.05 СВ 1 50 км 10/0
[Cs]
+5.5 -2.1 58 +5 +5 1024.8 961.3
06 18.05 ЮЗ 3 50 км 10/0
[Cs]
+11.0 -8.3 25 +10 +10 1020.9 958.7
09 18.05 Ю 2 50 км 10/0
[Cs]
+13.5 -7.8 22 +13 +13 1017.4 956.0
12 18.05 Ю 2 50 км 10/0
[Ac trans Ci sp]
+15.1 -6.7 22 +15 +17 1014.2 953.5 +15.6
15 18.05 ЮЗ 1 н/о 10/0
[Ac trans Ci sp]
+5.7 -3.6 51 +5 +5 1017.8 954.7
18 18.05 штиль 0 н/о 10 баллов 0.0 -4.4 72 -1 -1 1017.6 953.3
21 18.05 штиль 0 н/о 10/0
[Ci fib]
-2.0 -5.0 80 -3 -3 1018.1 953.3
00 19.05 штиль 0 50 км 8/0
[Ci fib]
-1.4 -4.6 79 -2 -1 1017.2 952.4 -2.8
03 19.05 В 1 50 км 10/0
[Ac trans Ci fib]
+11.0 -1.7 41 +11 +11 1013.7 952.0
06 19.05 ЮВ 1 50 км 4 балла +22.1 -2.6 19 +21 +32 комфорт 1008.4 949.3
09 19.05 Ю 3
{11}
50 км 6/0
[Ac lent Ci fib]
+23.8 -4.4 15 +22 +25 комфорт 1006.7 948.0
12 19.05 ЮЗ 4
{10}
50 км 10/8 1050 м
[Cb cap Ac trans Ci fib]
+21.6 -4.3 17 +21 +21 комфорт 1007.4 948.2 +24.4
15 19.05 ЮЗ 1 н/о 3/0
[Ac lent Ci fib]
+9.9 -0.6 48 +10 +10 1011.0 949.3
18 19.05 штиль 0 н/о 7 баллов +3.5 -1.3 71 +3 +3 1014.0 950.7
21 19.05 штиль 0 н/о 10/0
[Ac trans Ci fib]
+2.4 -0.5 81 +1 +1 1012.7 949.3
00 20.05 С 1 10 км ливневой дождь 10/10 1000 м
[Cb cap]
+3.6 +1.8 88 +2 +2 1014.3 951.0 +2.0 1
03 20.05 штиль 0 50 км {ливн. осадки} 10/10 1020 м
[Cb cap]
+8.5 +6.3 86 +8 +8 1011.6 949.7
06 20.05 С 1 20 км слаб. ливневой дождь 10/10 1000 м
[Cb cap]
+13.2 +9.3 77 +13 +13 1010.4 949.5
09 20.05 ЮЗ 4 50 км 2 балла +16.1 +7.6 57 +15 +21 1009.6 949.3
12 20.05 Ю 3 50 км {ливн. осадки} 1/0
[Ac trans]
+17.7 +6.7 48 +18 +19 1008.3 948.3 +18.8 3
15 20.05 ЮЗ 1 н/о 10 баллов +10.7 +6.6 76 +10 +10 1009.4 948.0
18 20.05 штиль 0 н/о 10 баллов +6.6 +4.3 85 +6 +6 1008.9 946.7
21 20.05 штиль 0 н/о 10 баллов +6.9 +5.5 91 +6 +6 1007.4 945.3
00 21.05 штиль 0 20 км слаб. ливневой дождь 10/10 1000 м
[Cb cap]
+7.5 +7.1 97 +6 +6 1003.5 941.7 +6.3 4
03 21.05 ЮЗ 3 10 км ливневой дождь 10 баллов +11.9 +8.6 80 +10 +10 1001.9 941.3
06 21.05 ЮЗ 2 10 км ливневой дождь 10 баллов +12.4 +9.2 81 +11 +11 1003.3 942.7
09 21.05 ЮЗ 2 50 км в посл. час ливневой дождь 10/10 960 м
[Cb cap]
+12.1 +7.6 74 +11 +11 1004.8 944.0
12 21.05 штиль 0 20 км слаб. ливневой дождь 10/10 1020 м
[Cb cap]
+8.1 +5.4 83 +7 +7 1006.5 945.0 +13.3 21
15 21.05 ЮВ 1 н/о {ливн. осадки} 10/8 1000 м
[Sc Ci sp]
+6.9 +4.6 85 +6 +6 1007.2 945.2

 

Местоположение метеостанции Неожиданный (Хакасия, Россия): широта 53.28 долгота 89.07 высота над уровнем моря 526 м.

В архиве по умолчанию представлена погода в Неожиданном за последнюю неделю. Архивные данные за месяц целиком и за предыдущие месяцы, начиная с января 2011 года, Вы можете получить, выбрав интересующий диапазон дат из раскрывающегося списка и нажав кнопку "Ввод!".


*Определитесь, кто Вы:
робот инопланетянин человек

Внимание! Время в таблицах - всемирное. Для получения местного времени необходимо прибавить поправку, которая равна 7 ч.

Смотрите также архив погоды в соседних городах и на ближайших метеорологических станциях:

Погода в Усть-Кабырзе (Кемеровская область, Россия) (66 км)
Погода в Междуреченске (Кемеровская область, Россия) (71 км)
Погода в Мантуре (Хакасия, Россия) (75 км)
Погода в Таштыпе (Хакасия, Россия) (76 км)
Погода в Аскизе (Хакасия, Россия) (95 км)
Погода в Таштаголе (Кемеровская область, Россия) (98 км)
Погода в Уйбате (Хакасия, Россия) (99 км)
Погода в Коммунаре (Хакасия, Россия) (118 км)
Погода в Кузедеево (Кемеровская область, Россия) (126 км)
Погода в Бее (Хакасия, Россия) (126 км)

Пояснения к столбцам:

Ветер - указаны скорость ветра в м/с - средняя за 10 мин, порывы в срок и между сроками (в фигурных скобках) и направление, откуда дует ветер: С - северный, СВ - северо-восточный, В - восточный, ЮВ - юго-восточный, Ю - южный, ЮЗ - юго-западный, З - западный, СЗ - северо-западный.
Видимость - горизонтальная дальность видимости в метрах или километрах. При видимости от 1 до 10 км при отсутствии осадков обычно наблюдается дымка, при ухудшении видимости до 1 км и менее - туман. В сухую погоду видимость может ухудшаться дымом, пылью или мглою.
Явления - указаны атмосферные явления, наблюдавшиеся в срок или в последний час перед сроком; фигурными скобками обозначены явления, наблюдавшиеся между сроками (за 1-3 часа до срока); квадратными скобками обозначены град или гололедные отложения с указанием их диаметра в мм.
Облачность - указаны через наклонную черту общая и нижняя облачность в баллах и высота нижней границы облаков в метрах; квадратными скобками обозначены формы облаков: Ci - перистые, Cs - перисто-слоистые, Cc - перисто-кучевые, Ac - высококучевые, As - высокослоистые, Sc - слоисто-кучевые, Ns - слоисто-дождевые, Cu - кучевые, Cb - кучево-дождевые. Подробнее классификацию облаков см. в Атласе облаков (PDF).
T - Температура воздуха - температура, измеренная на высоте 2 м над землей.
Td - Температура точки росы - температура, при понижении до которой содержащийся в воздухе водяной пар достигнет насыщения.
f - Относительная влажность воздуха - влажноcть воздуха, измеренная на высоте 2 м над землей.
Te - Эффективная температура - температура, которую ощущает одетый по сезону человек в тени. Характеристика душности погоды. При расчете учитывается влияние влажности воздуха и скорости ветра на теплоощущения человека.
Tes - Эффективная температура на солнце - температура, которую ощущает человек, с поправкой на солнечный нагрев. Характеристика знойности погоды. Зависит от высоты солнца над горизонтом, облачности и скорости ветра. Ночью, в пасмурную погоду, а также при ветре 12 м/с и более поправка равна нулю.
P - Атмосферное давление - приведенное к уровню моря атмосферное давление.
Po - Атмосферное давление - измеренное на уровне метеостанции атмосферное давление.
Tmin - Минимальная температура - минимум температуры воздуха на высоте 2 м над землей.
Tmax - Максимальная температура - максимум температуры воздуха на высоте 2 м над землей.
R - Количество осадков - Количество выпавших осадков за период времени, мм. При наведении курсора мыши на число - период времени, за который выпало указанное количество осадков.
R24 - Количество осадков - Количество выпавших осадков за 24 часа, мм.
S - Снежный покров - Высота снежного покрова, см. При наведении курсора мыши на число - состояние снежного покрова и степень покрытия местности в баллах.